Torna al catalogo

OPS 9344

IDSCS 22

LostMilitareMEO
NORAD 3287·PAYLOAD·🇺🇸 United States

Lanciato Jun 13, 1968 da Cape Canaveral Space Force Station

Loading…

Prossimi Passaggi (prossime 24 ore)

TLE

ObsoletoSource: Space-Track

Epoca: Jul 24, 2026, 07:53 UTC

1  3287U 68050D   26205.32852354 -.00000119  00000-0  00000+0 0  9997
2  3287   7.2593  51.9041 0025961 147.8376 112.3951  1.07640896227663

Traccia OPS 9344 in tempo reale con AllMySat

Download on the App Store